Location: Franzen
(48.6167°N, 15.3833°E)
Time: 09:22:59
(UTC+00:00)

Altair - Pass Details

Date: 08 August 2021
Orbit: 1501 x 1682 km, 47.2° (Epoch: 20 September)

Event Time Altitude Azimuth Distance (km) Brightness Sun altitude
Rises 05:14:15 0° 289° (WNW) 4,673 9.5 13.6°
Reaches altitude 10° 05:17:38 10° 281° (WNW) 3,674 9.0 14.2°
Maximum altitude 05:25:35 35° 221° (SW) 2,258 8.2 15.5°
Drops below altitude 10° 05:33:32 10° 160° (SSE) 3,653 9.7 16.8°
Sets 05:36:54 0° 152° (SSE) 4,643 10.3 17.3°
